Tracking 27112 objects as of 27-Mar-2023
HD Live streaming from Space Station
objects crossing your sky now

OPS 3151

Track OPS 3151 now!
OPS 3151 is classified as:


NORAD ID: 9803
Int'l Code: 1977-007A
Perigee: 36,232.4 km
Apogee: 36,927.5 km
Inclination: 7.7 °
Period: 1,476.4 minutes
Semi major axis: 42950 km
RCS: Unknown
Launch date: February 6, 1977
Source: United States (US)
Launch site: AIR FORCE EASTERN TEST RANGE (AFETR)
Your satellite tracking list
Your tracking list is empty




NASA's NSSDC Master Catalog

Two Line Element Set (TLE):
1 09803U 77007A   23085.88142001 -.00000179  00000-0  00000-0 0  9991
2 09803   7.7284 295.7006 0080925  10.6885 357.8677  0.97531278 13167
Source of the keplerian elements: McCants